Regional Weather Roundup
Issued by NWS

Home | Current Version | Previous Version | Text Only | Print | Product List | Glossary Off
Versions: 1 2 3 4 5 6 7 8 9 10 11 12 13 14 15 16 17 18 19 20 21 22 23 24 25 26 27 28 29 30 31 32 33 34 35 36 37 38 39 40 41 42 43 44 45 46 47 48 49 50

000
ASUS43 KFSD 191402
RWRSD

WEATHER ROUNDUP FOR SOUTH DAKOTA
NATIONAL WEATHER SERVICE SIOUX FALLS SD
900 AM CDT THU APR 19 2018

NOTE: "FAIR" INDICATES FEW OR NO CLOUDS BELOW 12,000 FEET WITH NO
SIGNIFICANT WEATHER AND/OR OBSTRUCTIONS TO VISIBILITY.


SDZ001>005-009-010-012>017-191500-
NORTHWEST AND NORTH CENTRAL SOUTH DAKOTA

CITY           SKY/WX    TMP DP  RH WIND       PRES   REMARKS
BUFFALO          N/A     37  32  82 SE7       30.27R
FAITH            N/A     35  34  96 S13       30.37R WCI  26
MOBRIDGE       SUNNY     34  29  82 S3        30.39R
$$

SDZ012>016-024>037-041>051-057-063-072>074-191500-
SOUTHWEST AND SOUTH CENTRAL SOUTH DAKOTA

CITY           SKY/WX    TMP DP  RH WIND       PRES   REMARKS
RAPID CTY ARPT SUNNY     36  34  92 SE5       30.35R
PIERRE         MOSUNNY   33  32  96 S3        30.42R
CUSTER         SUNNY     36  27  69 SE6       30.31R
ELLSWORTH AFB  SUNNY     40  38  92 SE8       30.34R
PHILIP         MOSUNNY   31  31 100 CALM      30.41R
PINE RIDGE     SUNNY     40  36  86 SW5       30.36R
SPEARFISH      FAIR      39  28  65 CALM      30.30R
WINNER         FAIR      30  25  81 SW3       30.43R
$$

SDZ004>011-016>023-039-040-191500-
NORTHEAST SOUTH DAKOTA

CITY           SKY/WX    TMP DP  RH WIND       PRES   REMARKS
ABERDEEN       SUNNY     40  33  76 SW3       30.44R
WATERTOWN      SUNNY     37  31  78 S5        30.42R
SISSETON         N/A     39  33  79 S3        30.42R
$$

SDZ017-020-022-023-036>040-048>070-191500-
SOUTHEAST SOUTH DAKOTA

CITY           SKY/WX    TMP DP  RH WIND       PRES   REMARKS
SIOUX FALLS    MOSUNNY   30  24  78 CALM      30.44R
HURON          SUNNY     32  29  88 W3        30.44R
CHAMBERLAIN    MOSUNNY   33  33  99 CALM      30.45R
MITCHELL       MOSUNNY   28  27  96 W5        30.46R WCI  23
YANKTON        SUNNY     34  30  85 CALM      30.46R
$$

ABBREVIATIONS USED IN REMARKS
   TC - TEMPERATURE IN CELSIUS
  WCI - WIND CHILL INDEX
   HX - HEAT INDEX
  VSB - VISIBILITY





USA.gov is the U.S. government's official web portal to all federal, state and local government web resources and services.